DW5181 Weather Reports


time (UTC)temp
F
wind
direction
speed
knots
gust
knots
rain 1hr
in
rain 24hr
in
rain mn
in
humidity
%
barometer
mb
20260505064534 55 58 0.9 9.6 0.00 0.00 0.00 68 1009.7
20260505064025 56 84 4.3 9.6 0.00 0.00 0.00 68 1009.6
20260505063536 56 30 1.7 6.1 0.00 0.00 0.00 67 1009.6
20260505063026 56 22 1.7 7.0 0.00 0.00 0.00 67 1009.6
20260505062518 56 63 3.5 7.8 0.00 0.00 0.00 66 1009.6
20260505062032 56 65 4.3 8.7 0.00 0.00 0.00 66 1009.6
20260505061522 56 62 3.5 8.7 0.00 0.00 0.00 66 1009.6
20260505061032 56 72 2.6 8.7 0.00 0.00 0.00 66 1009.6
20260505060524 56 87 2.6 8.7 0.00 0.00 0.00 66 1009.6
20260505060035 56 25 2.6 7.0 0.00 0.00 0.00 66 1009.7
20260505055526 56 39 0.9 5.2 0.00 0.00 0.00 66 1009.6
20260505055037 56 66 2.6 6.1 0.00 0.00 0.00 65 1009.7
20260505054526 56 55 2.6 5.2 0.00 0.00 0.00 65 1009.7
20260505054020 56 27 2.6 5.2 0.00 0.00 0.00 65 1009.7
20260505053530 57 79 2.6 8.7 0.00 0.00 0.00 65 1009.7
20260505053020 57 24 3.5 8.7 0.00 0.00 0.00 64 1009.7
20260505052532 57 27 1.7 6.1 0.00 0.00 0.00 64 1009.6
20260505052023 57 45 1.7 5.2 0.00 0.00 0.00 64 1009.7
20260505051533 57 56 1.7 4.3 0.00 0.00 0.00 63 1009.7
20260505051024 57 79 0.9 7.8 0.00 0.00 0.00 63 1009.7
20260505050535 57 23 3.5 7.8 0.00 0.00 0.00 63 1009.7
20260505041526 58 55 4.3 9.6 0.00 0.00 0.00 60 1009.8
20260505041021 58 73 3.5 7.0 0.00 0.00 0.00 60 1009.8
20260505040531 58 77 2.6 6.1 0.00 0.00 0.00 60 1009.8
20260505040039 58 35 4.3 7.8 0.00 0.00 0.00 59 1009.7
20260505035527 58 51 3.5 7.8 0.00 0.00 0.00 59 1009.7
20260505035038 58 53 3.5 8.7 0.00 0.00 0.00 58 1009.7
20260505034527 58 10 3.5 11.3 0.00 0.00 0.00 58 1009.7
20260505034039 58 48 5.2 11.3 0.00 0.00 0.00 58 1009.7
20260505033529 58 43 3.5 7.8 0.00 0.00 0.00 57 1009.7
20260505033019 59 25 4.3 7.8 0.00 0.00 0.00 56 1009.6
20260505032531 59 357 3.5 7.8 0.00 0.00 0.00 56 1009.7
20260505032026 59 20 3.5 7.8 0.00 0.00 0.00 56 1009.5
20260505031536 59 27 2.6 7.8 0.00 0.00 0.00 55 1009.7
20260505031028 59 41 4.3 11.3 0.00 0.00 0.00 54 1009.6
20260505030520 59 55 6.1 11.3 0.00 0.00 0.00 54 1009.7
20260505030051 59 354 2.6 8.7 0.00 0.00 0.00 54 1009.6
20260505025520 59 25 1.7 14.8 0.00 0.00 0.00 54 1009.7
20260505025031 59 356 7.0 14.8 0.00 0.00 0.00 53 1009.6
20260505024521 60 72 2.6 9.6 0.00 0.00 0.00 53 1009.7
20260505024033 60 70 3.5 8.7 0.00 0.00 0.00 53 1009.7
20260505023527 60 105 4.3 11.3 0.00 0.00 0.00 52 1009.6
20260505023036 60 71 6.1 11.3 0.00 0.00 0.00 52 1009.6
20260505022527 60 60 1.7 5.2 0.00 0.00 0.00 52 1009.6
20260505022018 60 42 2.6 8.7 0.00 0.00 0.00 52 1009.7
20260505021529 60 48 3.5 8.7 0.00 0.00 0.00 51 1009.7
20260505021020 60 11 4.3 8.7 0.00 0.00 0.00 51 1009.6
20260505020550 60 42 3.5 9.6 0.00 0.00 0.00 51 1009.6
20260505020041 60 11 4.3 10.4 0.00 0.00 0.00 51 1009.7
20260505015550 61 32 3.5 10.4 0.00 0.00 0.00 50 1009.6
20260505015040 61 91 4.3 10.4 0.00 0.00 0.00 50 1009.5
20260505014530 61 44 4.3 12.2 0.00 0.00 0.00 50 1009.6
20260505014024 61 51 3.5 12.2 0.00 0.00 0.00 50 1009.4
20260505013534 61 328 4.3 9.6 0.00 0.00 0.00 49 1009.4
20260505013044 61 46 6.1 9.6 0.00 0.00 0.00 49 1009.3
20260505012534 61 65 5.2 9.6 0.00 0.00 0.00 49 1009.2
20260505012024 61 38 3.5 8.7 0.00 0.00 0.00 49 1009.1
20260505011535 62 27 2.6 10.4 0.00 0.00 0.00 49 1009.0
20260505011025 62 43 5.2 10.4 0.00 0.00 0.00 49 1009.0
20260505010557 62 18 3.5 10.4 0.00 0.00 0.00 49 1008.9
20260505010026 62 75 5.2 12.2 0.00 0.00 0.00 49 1008.7
20260505005538 61 68 6.1 14.8 0.00 0.00 0.00 50 1008.8
20260505005048 61 26 3.5 14.8 0.00 0.00 0.00 51 1008.6
20260505004521 62 82 5.2 10.4 0.00 0.00 0.00 51 1008.6
20260505004032 62 25 2.6 13.9 0.00 0.00 0.00 51 1008.5
20260505003522 62 70 5.2 13.9 0.00 0.00 0.00 51 1008.3
20260505003032 62 347 5.2 13.9 0.00 0.00 0.00 50 1008.1
20260505002522 62 56 4.3 9.6 0.00 0.00 0.00 50 1008.0
20260505002033 63 346 3.5 9.6 0.00 0.00 0.00 49 1007.8
20260505001524 63 32 5.2 11.3 0.00 0.00 0.00 49 1007.7
20260505001035 63 18 4.3 9.6 0.00 0.00 0.00 49 1007.4
20260505000529 64 327 1.7 9.6 0.00 0.00 0.00 48 1007.3
20260505000020 65 53 0.9 13.9 0.00 0.00 0.00 45 1007.2
20260504235553 65 19 2.6 14.8 0.00 0.00 0.00 44 1007.1
20260504235023 65 342 4.3 17.4 0.00 0.00 0.00 43 1006.9
20260504234534 66 32 4.3 17.4 0.00 0.00 0.00 43 1006.8
20260504234026 66 56 6.1 15.6 0.00 0.00 0.00 42 1006.8
20260504233537 66 75 4.3 13.0 0.00 0.00 0.00 41 1006.8
20260504233025 67 34 5.2 13.0 0.00 0.00 0.00 41 1006.7
20260504232535 67 46 6.1 13.0 0.00 0.00 0.00 40 1006.6
20260504232030 68 51 5.2 14.8 0.00 0.00 0.00 39 1006.4
20260504231519 68 61 6.1 14.8 0.00 0.00 0.00 38 1006.3
20260504231029 69 51 7.0 14.8 0.00 0.00 0.00 37 1006.2
20260504230521 70 43 5.2 17.4 0.00 0.00 0.00 36 1006.0
20260504230032 70 62 6.1 17.4 0.00 0.00 0.00 33 1005.9
20260504225544 71 46 4.3 9.6 0.00 0.00 0.00 31 1005.8
20260504225055 71 74 2.6 7.0 0.00 0.00 0.00 31 1005.7
20260504224524 72 42 2.6 7.0 0.00 0.00 0.00 31 1005.7
20260504224036 71 58 1.7 7.8 0.00 0.00 0.00 31 1005.7
20260504223526 72 77 2.6 11.3 0.00 0.00 0.00 32 1005.6
20260504223020 72 14 5.2 13.9 0.00 0.00 0.00 31 1005.7
20260504222531 72 41 3.5 13.9 0.00 0.00 0.00 30 1005.7
20260504222021 72 75 3.5 7.8 0.00 0.00 0.00 30 1005.6
20260504221533 72 60 2.6 9.6 0.00 0.00 0.00 31 1005.6
20260504221022 72 69 5.2 9.6 0.00 0.00 0.00 30 1005.6
20260504220533 72 81 2.6 13.0 0.00 0.00 0.00 30 1005.7
20260504220024 72 55 2.6 13.0 0.00 0.00 0.00 30 1005.6
20260504215536 72 96 5.2 10.4 0.00 0.00 0.00 30 1005.7
20260504215032 72 62 3.5 13.9 0.00 0.00 0.00 30 1005.7
20260504214543 73 85 6.1 13.9 0.00 0.00 0.00 29 1005.7
20260504214053 73 75 3.5 12.2 0.00 0.00 0.00 30 1005.6
20260504213522 72 135 4.3 9.6 0.00 0.00 0.00 29 1005.6
20260504213033 72 8 4.3 9.6 0.00 0.00 0.00 29 1005.6
20260504212525 73 72 4.3 8.7 0.00 0.00 0.00 28 1005.7
20260504212036 73 20 2.6 9.6 0.00 0.00 0.00 29 1005.6
20260504211527 73 325 4.3 10.4 0.00 0.00 0.00 29 1005.6
20260504211037 72 92 3.5 12.2 0.00 0.00 0.00 30 1005.6
20260504210526 72 41 5.2 14.8 0.00 0.00 0.00 29 1005.6
20260504210020 72 47 5.2 14.8 0.00 0.00 0.00 29 1005.7
20260504205531 72 74 6.1 12.2 0.00 0.00 0.00 28 1005.7
20260504205023 73 57 2.6 7.0 0.00 0.00 0.00 29 1005.7
20260504204534 72 41 3.5 13.0 0.00 0.00 0.00 29 1005.7
20260504204045 72 57 5.2 13.0 0.00 0.00 0.00 28 1005.7
20260504203533 72 91 2.6 13.0 0.00 0.00 0.00 28 1005.8
20260504203024 72 129 4.3 13.9 0.00 0.00 0.00 28 1005.7
20260504202535 72 101 7.0 13.9 0.00 0.00 0.00 27 1005.8
20260504202026 72 86 6.1 12.2 0.00 0.00 0.00 28 1005.8
20260504201519 73 32 2.6 13.0 0.00 0.00 0.00 28 1005.8
20260504201030 72 69 5.2 13.0 0.00 0.00 0.00 28 1005.8
20260504200521 72 60 5.2 13.0 0.00 0.00 0.00 27 1005.7
20260504200032 72 43 5.2 12.2 0.00 0.00 0.00 28 1005.7
20260504195521 72 94 4.3 11.3 0.00 0.00 0.00 29 1005.9
20260504195054 72 48 7.0 16.5 0.00 0.00 0.00 28 1005.9
20260504194523 71 13 7.8 17.4 0.00 0.00 0.00 28 1005.9
20260504194055 72 38 5.2 17.4 0.00 0.00 0.00 29 1006.0
20260504193524 72 8 4.3 16.5 0.00 0.00 0.00 30 1006.0
20260504193019 71 115 4.3 20.0 0.00 0.00 0.00 29 1005.9
20260504192531 71 32 11.3 20.0 0.00 0.00 0.00 29 1005.8
20260504192041 71 89 7.8 16.5 0.00 0.00 0.00 28 1005.9
20260504191532 71 63 7.8 15.6 0.00 0.00 0.00 28 1005.7
20260504191021 71 6 4.3 16.5 0.00 0.00 0.00 28 1006.0
20260504190532 71 63 9.6 16.5 0.00 0.00 0.00 27 1006.2
20260504190023 71 79 6.1 13.9 0.00 0.00 0.00 29 1006.1
20260504185532 72 133 5.2 10.4 0.00 0.00 0.00 29 1006.1
20260504185022 71 342 2.6 14.8 0.00 0.00 0.00 29 1006.0
20260504184531 70 91 5.2 14.8 0.00 0.00 0.00 30 1006.1
20260504184026 71 71 7.8 14.8 0.00 0.00 0.00 29 1006.3
20260504183518 70 60 6.1 14.8 0.00 0.00 0.00 30 1006.3
20260504183030 70 32 7.8 12.2 0.00 0.00 0.00 29 1006.2
20260504182519 70 57 5.2 13.9 0.00 0.00 0.00 31 1006.3
20260504182048 70 72 7.0 13.9 0.00 0.00 0.00 30 1006.4
20260504181519 70 69 5.2 13.0 0.00 0.00 0.00 30 1006.3
20260504181028 70 142 7.0 13.0 0.00 0.00 0.00 30 1006.5
20260504180519 69 64 4.3 14.8 0.00 0.00 0.00 31 1006.5
20260504180030 69 65 7.8 14.8 0.00 0.00 0.00 29 1006.6
20260504175524 69 60 4.3 17.4 0.00 0.00 0.00 30 1006.6
20260504175034 69 30 7.8 19.1 0.00 0.00 0.00 29 1006.6
20260504174523 69 131 6.1 17.4 0.00 0.00 0.00 30 1006.8
20260504174035 69 101 5.2 13.9 0.00 0.00 0.00 31 1006.6
20260504173545 69 28 6.1 13.0 0.00 0.00 0.00 31 1006.8
20260504173036 69 69 4.3 13.0 0.00 0.00 0.00 32 1006.8
20260504172527 69 70 2.6 15.6 0.00 0.00 0.00 33 1006.7
20260504172018 68 79 5.2 15.6 0.00 0.00 0.00 31 1006.7
20260504171530 68 44 6.1 14.8 0.00 0.00 0.00 33 1006.6
20260504171024 68 59 5.2 16.5 0.00 0.00 0.00 32 1006.7
20260504170516 68 129 6.1 16.5 0.00 0.00 0.00 31 1006.9
20260504151028 65 82 5.2 13.9 0.00 0.05 0.00 36 1008.2
20260504150516 65 141 2.6 12.2 0.00 0.05 0.00 37 1008.3
20260504141035 62 63 5.2 14.8 0.00 0.06 0.00 39 1008.6
20260504140529 62 91 5.2 11.3 0.00 0.06 0.00 39 1008.7
20260504130521 59 113 4.3 11.3 0.00 0.06 0.00 43 1009.4
20260504110519 49 27 1.7 5.2 0.00 0.06 0.00 55 1010.1
20260504100530 49 15 1.7 3.5 0.00 0.06 0.00 54 1010.0
20260504081532 47 53 0.9 1.7 0.00 0.06 0.00 56 1009.9
20260504081021 47 34 0.9 1.7 0.00 0.06 0.00 56 1009.8
20260504080552 46 19 0.0 1.7 0.00 0.06 0.00 57 1009.8